SCP
0 0 0 0 0 0 0 0 0 0 0 0 -0 0 0 0 0 0 0 0 0 0 0 0 0 0 0 0 0 0 0 0
0 0 0 0 0 0 0 0 0 0 0 0 -0 -0 0 0 0 0 0 0 0 0 0 0 0 0 0 0 0 0 0 0
0 0 0 0 0 0 0 0 0 0 0 0 0 0 -0 0 0 0 0 0 0 0 0 0 0 0 0 0 0 0 0 0
0 0 0 0 0 0 0 0 0 0 0 0 0 0 -0 -0 0 0 0 0 0 0 0 0 0 0 0 0 0 0 0 0
0 0 0 0 0 0 0 0 0 0 0 0 0 0 0 -0 0 0 0 0 0 0 0 0 0 0 0 0 0 0 0 0
-0 0 0 0 0 0 0 0 -0 0 0 0 0 0 0 0 0 0 0 0 0 0 0 0 0 0 0 0 0 0 0 0
0 0 0 0 0 0 -0 -0 0 0 0 0 0 0 0 0 0 0 0 0 0 0 0 0 0 0 0 0 0 0 -0 0
0 0 0 0 0 -0 -0 0 -0 -0 -0 0 -0 -0 0 0 0 0 0 0 0 0 0 0 0 0 0 0 -0 -0 -0 -0
-0 0 0 0 -0 -0 0 -0 -0 -0 0 -0 0 0 0 0 0 0 0 0 0 -0 0 -0 0 -0 -0 -0 0 -0 -0 0
-0 -0 0 -0 0 -0 -0 -0 -0 0 -0 -0 -0 -0 0 0 0 -0 -0 -0 -0 -0 0 0 0 0 0 0 0 -0 -0 -0
0 -0 -0 0 -0 0 0 -0 0 -0 -0 -0 -0 -0 0 -0 -0 0 -0 0 0 0 0 0 0 -0 -0 -0 -0 0 0 0
0 -0 -0 -0 0 0 0 0 0 -0 -0 -0 -0 -0 0 0 0 -0 -0 0 0 0 0 -0 -0 -0 -0 -0 -0 -0 -0 -0
-0 -0 -0 -0 0 0 0 0 -0 -0 -0 -0 -0 -0 0 0 0 0 0 0 0 0 0 0 0 0 0 0 0 0 -0 -0
0 0 0 0 0 0 0 0 0 0 0 -0 -0 -0 0 0 -0 0 0 0 0 0 0 0 0 0 0 -0 -0 -0 -0 -0
0 0 0 0 0 0 0 0 0 0 0 0 -0 -0 0 0 0 0 0 0 0 0 0 0 0 0 0 0 0 0 -0 -0
0 0 0 0 0 0 0 0 0 0 -0 0 0 0 0 0 0 0 0 0 0 0 0 0 0 0 0 0 0 0 -0 -0
0 0 0 0 0 0 0 0 -0 -0 0 0 0 0 0 0 0 0 0 0 0 0 0 0 0 0 0 -0 -0 -0 -0 -0
0 0 0 0 0 0 0 0 0 0 0 0 0 0 0 0 0 0 0 0 0 0 0 0 0 -0 -0 -0 -0 -0 0 0
0 0 0 0 0 0 0 0 0 0 0 0 0 0 0 0 -0 0 0 0 0 0 0 0 0 0 0 0 0 0 0 0
0 0 0 0 0 0 0 0 0 0 0 0 0 0 0 -0 0 0 0 0 0 0 0 0 0 0 0 0 0 0 0 0
Wind_Speed_500mb
37 34 28 36 27 34 44 45 45 44 40 40 33 24 41 35 31 32 37 36 38 38 33 35 35 36 36 36 34 29 23 20
30 45 43 37 42 48 52 50 41 42 42 40 40 36 43 29 31 38 37 36 33 33 31 31 28 29 28 24 19 14 5 6
43 45 41 40 51 49 48 47 39 40 40 38 35 33 43 23 40 34 32 32 28 27 27 26 24 21 16 7 5 16 19 26
42 48 45 54 54 54 44 39 40 41 41 40 33 30 32 30 36 28 28 23 22 20 19 19 20 18 12 15 21 22 29 26
63 53 57 58 57 44 48 46 45 44 38 33 31 27 17 33 27 19 15 15 15 16 19 19 25 25 18 15 15 17 22 23
57 57 52 47 45 46 44 39 35 34 31 29 27 18 30 26 17 8 10 14 16 17 19 19 17 21 17 28 38 31 31 37
56 52 47 49 48 44 38 37 30 31 28 27 25 18 22 13 3 11 17 18 21 21 23 21 21 29 29 31 29 32 33 34
50 42 48 55 49 41 36 36 28 28 22 20 11 18 9 4 13 22 24 23 28 29 33 34 32 36 30 32 41 36 30 29
58 54 49 47 43 32 38 28 26 20 17 15 22 7 7 18 28 28 27 30 32 47 41 33 28 27 23 24 19 29 31 28
61 60 55 41 31 35 27 26 17 15 14 10 1 18 29 35 37 40 41 48 47 39 36 39 37 32 26 30 32 31 32 36
44 36 25 29 27 23 26 28 9 14 10 9 27 38 42 50 56 48 46 41 38 37 33 36 32 36 53 49 49 48 50 47
38 39 30 32 27 13 11 9 15 18 13 35 47 49 57 51 39 35 39 37 35 35 34 33 30 37 39 35 36 40 40 36
35 28 23 13 11 13 16 19 21 21 42 53 57 60 39 51 52 44 42 38 35 36 40 37 40 45 46 40 33 34 32 40
24 20 13 12 24 25 24 28 22 45 62 62 60 49 43 50 55 57 51 47 45 44 45 45 49 45 43 47 47 41 36 40
21 20 20 30 31 34 32 28 39 62 66 68 60 49 50 54 52 52 53 52 49 52 51 51 52 51 48 46 45 32 44 43
19 29 37 41 45 44 30 31 58 70 73 53 48 47 48 48 45 43 41 41 42 44 43 39 42 43 39 32 35 39 39 41
42 50 52 53 50 44 36 50 72 76 57 42 46 47 42 43 43 42 42 40 39 37 34 38 45 48 47 47 44 44 43 42
60 60 55 53 51 45 49 67 80 54 34 50 48 47 42 42 40 39 37 36 37 37 40 38 35 36 41 44 46 45 45 44
52 53 53 54 52 52 63 81 60 44 53 49 49 45 41 39 37 35 37 40 42 45 45 45 42 42 44 45 46 47 46 44
53 54 51 52 57 65 84 71 50 50 49 48 45 43 41 41 41 41 42 43 45 46 46 47 47 47 48 49 49 48 46 45
Wind_Direction_500mb
330 321 343 319 324 332 325 319 315 319 319 312 297 312 321 324 323 328 337 341 335 329 321 318 321 324 319 313 313 312 306 296
325 333 327 323 326 325 322 316 308 309 313 308 306 297 318 314 323 327 332 337 331 326 327 329 331 332 327 323 329 321 302 134
316 307 313 320 322 330 319 315 310 306 305 301 300 306 304 323 326 321 330 332 334 337 341 348 351 356 13 30 110 123 119 117
326 327 325 324 322 320 315 311 310 306 301 294 296 302 305 314 315 320 326 341 355 6 18 26 45 66 106 108 106 111 102 100
320 313 313 319 312 309 309 305 305 305 292 289 289 298 297 313 313 314 342 11 29 50 63 75 93 98 93 84 79 98 102 102
309 307 305 314 310 306 300 303 302 302 294 287 283 280 297 312 304 356 43 61 66 73 91 98 98 88 71 74 73 73 82 89
303 302 303 310 305 305 304 301 298 301 296 298 295 272 305 296 34 75 84 87 92 91 89 83 90 103 95 82 66 64 78 79
305 304 301 303 306 305 299 291 290 294 293 320 250 318 315 99 102 104 99 95 94 92 93 89 77 95 89 75 83 93 88 81
301 299 296 296 292 287 286 280 278 283 276 252 305 323 110 114 111 104 104 102 95 79 80 82 98 87 78 94 53 87 88 100
301 292 291 287 282 284 265 258 268 283 232 284 172 117 120 116 104 96 92 85 84 86 87 77 67 64 61 66 77 79 89 96
303 300 293 287 274 259 259 267 242 249 220 126 122 127 116 106 97 92 88 88 86 83 77 72 68 70 73 80 80 86 84 81
298 290 284 275 273 235 211 173 182 174 136 131 130 119 108 92 85 99 94 88 85 79 71 67 63 77 76 72 78 85 86 82
300 280 276 266 187 162 145 169 171 141 136 132 123 114 97 107 102 92 93 84 85 82 86 79 75 76 77 78 77 69 71 80
280 257 237 179 152 139 150 152 148 144 135 130 118 106 105 101 101 97 92 93 91 90 92 82 79 82 85 83 79 82 75 87
254 216 181 154 147 147 145 137 142 139 132 119 108 108 107 107 104 100 96 96 89 82 86 89 89 89 88 82 79 81 70 65
189 160 155 147 151 149 144 131 139 135 125 115 116 116 113 109 108 107 100 97 89 81 82 82 87 82 74 71 82 75 76 74
133 137 144 155 149 141 138 141 140 128 111 115 119 119 117 111 107 104 100 95 90 85 80 74 71 70 66 66 67 69 68 66
133 139 148 146 141 136 140 140 132 115 107 124 121 117 113 110 106 102 96 92 88 83 76 73 72 68 65 64 64 65 66 65
138 140 143 143 137 139 139 137 125 118 122 120 118 115 112 108 104 100 97 93 87 84 79 78 76 72 69 67 65 64 63 63
137 135 138 138 137 136 134 126 119 122 119 120 119 114 110 107 103 100 97 93 90 86 80 72 71 71 69 66 64 62 63 64
Wind_Speed_850mb
37 34 28 36 27 34 44 45 45 44 40 40 33 24 41 35 31 32 37 36 38 38 33 35 35 36 36 36 34 29 23 20
30 45 43 37 42 48 52 50 41 42 42 40 40 36 43 29 31 38 37 36 33 33 31 31 28 29 28 24 19 14 5 6
43 45 41 40 51 49 48 47 39 40 40 38 35 33 43 23 40 34 32 32 28 27 27 26 24 21 16 7 5 16 19 26
42 48 45 54 54 54 44 39 40 41 41 40 33 30 32 30 36 28 28 23 22 20 19 19 20 18 12 15 21 22 29 26
63 53 57 58 57 44 48 46 45 44 38 33 31 27 17 33 27 19 15 15 15 16 19 19 25 25 18 15 15 17 22 23
57 57 52 47 45 46 44 39 35 34 31 29 27 18 30 26 17 8 10 14 16 17 19 19 17 21 17 28 38 31 31 37
56 52 47 49 48 44 38 37 30 31 28 27 25 18 22 13 3 11 17 18 21 21 23 21 21 29 29 31 29 32 33 34
50 42 48 55 49 41 36 36 28 28 22 20 11 18 9 4 13 22 24 23 28 29 33 34 32 36 30 32 41 36 30 29
58 54 49 47 43 32 38 28 26 20 17 15 22 7 7 18 28 28 27 30 32 47 41 33 28 27 23 24 19 29 31 28
61 60 55 41 31 35 27 26 17 15 14 10 1 18 29 35 37 40 41 48 47 39 36 39 37 32 26 30 32 31 32 36
44 36 25 29 27 23 26 28 9 14 10 9 27 38 42 50 56 48 46 41 38 37 33 36 32 36 53 49 49 48 50 47
38 39 30 32 27 13 11 9 15 18 13 35 47 49 57 51 39 35 39 37 35 35 34 33 30 37 39 35 36 40 40 36
35 28 23 13 11 13 16 19 21 21 42 53 57 60 39 51 52 44 42 38 35 36 40 37 40 45 46 40 33 34 32 40
24 20 13 12 24 25 24 28 22 45 62 62 60 49 43 50 55 57 51 47 45 44 45 45 49 45 43 47 47 41 36 40
21 20 20 30 31 34 32 28 39 62 66 68 60 49 50 54 52 52 53 52 49 52 51 51 52 51 48 46 45 32 44 43
19 29 37 41 45 44 30 31 58 70 73 53 48 47 48 48 45 43 41 41 42 44 43 39 42 43 39 32 35 39 39 41
42 50 52 53 50 44 36 50 72 76 57 42 46 47 42 43 43 42 42 40 39 37 34 38 45 48 47 47 44 44 43 42
60 60 55 53 51 45 49 67 80 54 34 50 48 47 42 42 40 39 37 36 37 37 40 38 35 36 41 44 46 45 45 44
52 53 53 54 52 52 63 81 60 44 53 49 49 45 41 39 37 35 37 40 42 45 45 45 42 42 44 45 46 47 46 44
53 54 51 52 57 65 84 71 50 50 49 48 45 43 41 41 41 41 42 43 45 46 46 47 47 47 48 49 49 48 46 45
Wind_Direction_850mb
330 321 343 319 324 332 325 319 315 319 319 312 297 312 321 324 323 328 337 341 335 329 321 318 321 324 319 313 313 312 306 296
325 333 327 323 326 325 322 316 308 309 313 308 306 297 318 314 323 327 332 337 331 326 327 329 331 332 327 323 329 321 302 134
316 307 313 320 322 330 319 315 310 306 305 301 300 306 304 323 326 321 330 332 334 337 341 348 351 356 13 30 110 123 119 117
326 327 325 324 322 320 315 311 310 306 301 294 296 302 305 314 315 320 326 341 355 6 18 26 45 66 106 108 106 111 102 100
320 313 313 319 312 309 309 305 305 305 292 289 289 298 297 313 313 314 342 11 29 50 63 75 93 98 93 84 79 98 102 102
309 307 305 314 310 306 300 303 302 302 294 287 283 280 297 312 304 356 43 61 66 73 91 98 98 88 71 74 73 73 82 89
303 302 303 310 305 305 304 301 298 301 296 298 295 272 305 296 34 75 84 87 92 91 89 83 90 103 95 82 66 64 78 79
305 304 301 303 306 305 299 291 290 294 293 320 250 318 315 99 102 104 99 95 94 92 93 89 77 95 89 75 83 93 88 81
301 299 296 296 292 287 286 280 278 283 276 252 305 323 110 114 111 104 104 102 95 79 80 82 98 87 78 94 53 87 88 100
301 292 291 287 282 284 265 258 268 283 232 284 172 117 120 116 104 96 92 85 84 86 87 77 67 64 61 66 77 79 89 96
303 300 293 287 274 259 259 267 242 249 220 126 122 127 116 106 97 92 88 88 86 83 77 72 68 70 73 80 80 86 84 81
298 290 284 275 273 235 211 173 182 174 136 131 130 119 108 92 85 99 94 88 85 79 71 67 63 77 76 72 78 85 86 82
300 280 276 266 187 162 145 169 171 141 136 132 123 114 97 107 102 92 93 84 85 82 86 79 75 76 77 78 77 69 71 80
280 257 237 179 152 139 150 152 148 144 135 130 118 106 105 101 101 97 92 93 91 90 92 82 79 82 85 83 79 82 75 87
254 216 181 154 147 147 145 137 142 139 132 119 108 108 107 107 104 100 96 96 89 82 86 89 89 89 88 82 79 81 70 65
189 160 155 147 151 149 144 131 139 135 125 115 116 116 113 109 108 107 100 97 89 81 82 82 87 82 74 71 82 75 76 74
133 137 144 155 149 141 138 141 140 128 111 115 119 119 117 111 107 104 100 95 90 85 80 74 71 70 66 66 67 69 68 66
133 139 148 146 141 136 140 140 132 115 107 124 121 117 113 110 106 102 96 92 88 83 76 73 72 68 65 64 64 65 66 65
138 140 143 143 137 139 139 137 125 118 122 120 118 115 112 108 104 100 97 93 87 84 79 78 76 72 69 67 65 64 63 63
137 135 138 138 137 136 134 126 119 122 119 120 119 114 110 107 103 100 97 93 90 86 80 72 71 71 69 66 64 62 63 64